El Reno, OK

6:27 AM CST on January 19, 2017 (GMT -0600)
Oklahoma City / Page Muni

Weather History for KRCE - March, 2014

Change the Weather History Date:

Monday, March 3, 2014

  Actual Average (KPWA) Record (KPWA)
Temperature  
Mean Temperature 9 °F -  
Max Temperature 17 °F 58 °F 84 °F (1955)
Min Temperature 1 °F 34 °F 3 °F (1960)
Degree Days  
Heating Degree Days 56    
Moisture  
Dew Point 3 °F    
Average Humidity 73    
Maximum Humidity 92    
Minimum Humidity 58    
Precipitation  
Precipitation 0.02 in - - ()
Sea Level Pressure  
Sea Level Pressure 30.41 in    
Wind  
Wind Speed 25 mph (North)    
Max Wind Speed 56 mph    
Max Gust Speed 66 mph    
Visibility 10 miles    
Events Rain , Snow    
Averages and records for this station are not official NWS values.
T = Trace of Precipitation, MM = Missing Value Source: NWS Daily Summary

Daily Weather History Graph

Daily Weather History Graph

Search for Another Location

Airport or City:

Trip Planner

Search our weather history database for the weather conditions in past years. The results will help you decide how hot, cold, wet, or windy it might be!

Date:

Astronomy

Mar. 03, 2014 Rise Set
Actual Time 6:58 AM CST 6:28 PM CST
Civil Twilight 6:32 AM CST 6:53 PM CST
Nautical Twilight 6:03 AM CST 7:23 PM CST
Astronomical Twilight 5:33 AM CST 7:53 PM CST
Moon 8:14 AM CST (3/3) 9:25 PM CST (3/3)
Length of Visible Light 12h 21m
Length of Day
11h 30m
Waxing Crescent, 8% of the Moon is Illuminated
Mar 3
Waxing Crescent
Mar 8
First Quarter
Mar 16
Full
Mar 23
Last Quarter
Mar 30
New

Hourly Weather History & Observations

Time (CST) Temp. Windchill Dew Point Humidity Pressure Visibility Wind Dir Wind Speed Gust Speed Precip Events Conditions
12:15 AM 6.8 °F - 3.2 °F 85% 30.46 in 8.0 mi North - - N/A Rain Light Freezing Rain
12:35 AM 6.8 °F - 3.2 °F 85% 30.47 in 7.0 mi North - - N/A Rain Light Freezing Rain
12:55 AM 6.8 °F - 3.2 °F 85% 30.46 in 8.0 mi North - - 0.01 in Rain Light Freezing Rain
1:15 AM 6.8 °F -22.0 °F 3.2 °F 85% 30.47 in 5.0 mi North 52.9 mph 59.8 mph N/A Snow Light Snow
1:35 AM 6.8 °F - 3.2 °F 85% 30.46 in 8.0 mi North - - 0.01 in Rain Light Freezing Rain
1:55 AM 6.8 °F - 3.2 °F 85% 30.46 in 5.0 mi North - - 0.01 in Rain Light Freezing Rain
2:15 AM 6.8 °F - 3.2 °F 85% 30.47 in 6.0 mi North - - N/A Rain Light Freezing Rain
2:35 AM 5.0 °F -25.0 °F 1.4 °F 85% 30.47 in 10.0 mi North 55.2 mph 61.0 mph N/A Rain Light Freezing Rain
2:55 AM 5.0 °F -24.1 °F -0.4 °F 78% 30.45 in 10.0 mi North 50.6 mph 62.1 mph N/A   Clear
3:15 AM 5.0 °F -25.2 °F -0.4 °F 78% 30.44 in 10.0 mi North 56.4 mph 65.6 mph N/A   Clear
3:35 AM 5.0 °F -25.0 °F -0.4 °F 78% 30.45 in 10.0 mi North 55.2 mph 63.3 mph N/A   Clear
3:55 AM 5.0 °F -23.2 °F -0.4 °F 78% 30.45 in 10.0 mi North 46.0 mph 65.6 mph N/A   Clear
4:15 AM 5.0 °F -23.7 °F -0.4 °F 78% 30.44 in 10.0 mi North 48.3 mph 61.0 mph N/A   Clear
4:35 AM 5.0 °F -23.7 °F -0.4 °F 78% 30.43 in 10.0 mi North 48.3 mph 61.0 mph N/A   Clear
4:55 AM 5.0 °F -21.0 °F -0.4 °F 78% 30.44 in 10.0 mi North 36.8 mph 44.9 mph N/A   Clear
5:15 AM 3.2 °F -21.5 °F -0.4 °F 85% 30.43 in 10.0 mi North 29.9 mph 47.2 mph N/A   Clear
5:35 AM 5.0 °F -14.7 °F -0.4 °F 78% 30.46 in 10.0 mi North 18.4 mph 26.5 mph N/A   Clear
5:55 AM 3.2 °F -16.5 °F -0.4 °F 85% 30.47 in 10.0 mi North 17.3 mph 20.7 mph N/A   Clear
6:15 AM 3.2 °F -10.3 °F -0.4 °F 85% 30.47 in 10.0 mi NNW 8.1 mph 20.7 mph N/A   Clear
6:35 AM 3.2 °F -11.3 °F -0.4 °F 85% 30.47 in 10.0 mi NNW 9.2 mph - N/A   Clear
6:55 AM 1.4 °F -14.5 °F -0.4 °F 92% 30.48 in 10.0 mi North 10.4 mph 16.1 mph N/A   Clear
7:15 AM 1.4 °F -14.5 °F -0.4 °F 92% 30.48 in 10.0 mi NNW 10.4 mph 18.4 mph N/A   Clear
7:35 AM 3.2 °F -11.3 °F -0.4 °F 85% 30.49 in 10.0 mi NW 9.2 mph 17.3 mph N/A   Clear
7:55 AM 5.0 °F -10.8 °F -0.4 °F 78% 30.51 in 10.0 mi NNW 11.5 mph 21.9 mph N/A   Clear
8:15 AM 5.0 °F -13.6 °F -0.4 °F 78% 30.51 in 10.0 mi North 16.1 mph 19.6 mph N/A   Clear
8:35 AM 5.0 °F -14.2 °F -0.4 °F 78% 30.51 in 10.0 mi North 17.3 mph - N/A   Clear
8:55 AM 5.0 °F -11.6 °F -0.4 °F 78% 30.52 in 10.0 mi NNW 12.7 mph - N/A   Clear
9:15 AM 6.8 °F -10.0 °F -0.4 °F 72% 30.53 in 10.0 mi NNW 13.8 mph - N/A   Clear
9:35 AM 6.8 °F -8.6 °F -0.4 °F 72% 30.52 in 10.0 mi North 11.5 mph 17.3 mph N/A   Clear
9:55 AM 6.8 °F -7.8 °F -0.4 °F 72% 30.51 in 10.0 mi North 10.4 mph 17.3 mph N/A   Clear
10:15 AM 8.6 °F -10.5 °F -0.4 °F 67% 30.51 in 10.0 mi North 19.6 mph 23.0 mph N/A   Clear
10:35 AM 8.6 °F -7.7 °F -0.4 °F 67% 30.51 in 10.0 mi North 13.8 mph - N/A   Clear
10:55 AM 8.6 °F -8.9 °F -0.4 °F 67% 30.49 in 10.0 mi NNE 16.1 mph 20.7 mph N/A   Clear
11:15 AM 8.6 °F -8.3 °F -0.4 °F 67% 30.47 in 10.0 mi North 15.0 mph - N/A   Clear
11:35 AM 10.4 °F -6.0 °F 1.4 °F 67% 30.45 in 10.0 mi NNE 15.0 mph - N/A   Clear
11:55 AM 10.4 °F -4.1 °F 1.4 °F 67% 30.48 in 10.0 mi North 11.5 mph - N/A   Clear
12:15 PM 10.4 °F -3.3 °F 1.4 °F 67% 30.49 in 10.0 mi NNW 10.4 mph - N/A   Clear
12:35 PM 10.4 °F -4.1 °F 1.4 °F 67% 30.48 in 10.0 mi NNW 11.5 mph - N/A   Clear
12:55 PM 12.2 °F -2.5 °F 3.2 °F 67% 30.46 in 10.0 mi NNW 12.7 mph - N/A   Clear
1:15 PM 12.2 °F -2.5 °F 1.4 °F 62% 30.43 in 10.0 mi NNW 12.7 mph - N/A   Clear
1:35 PM 12.2 °F -1.8 °F 1.4 °F 62% 30.42 in 10.0 mi North 11.5 mph - N/A   Clear
1:55 PM 14.0 °F 0.5 °F 5.0 °F 67% 30.38 in 10.0 mi NNE 11.5 mph - N/A   Clear
2:15 PM 14.0 °F 2.0 °F 5.0 °F 67% 30.38 in 10.0 mi NNE 9.2 mph - N/A   Clear
2:35 PM 15.8 °F 1.4 °F 5.0 °F 62% 30.36 in 10.0 mi NNE 13.8 mph - N/A   Clear
2:55 PM 15.8 °F 2.1 °F 5.0 °F 62% 30.34 in 10.0 mi NNE 12.7 mph - N/A   Clear
3:15 PM 15.8 °F 5.1 °F 5.0 °F 62% 30.36 in 10.0 mi ENE 8.1 mph - N/A   Clear
3:35 PM 15.8 °F 4.2 °F 5.0 °F 62% 30.34 in 10.0 mi NNE 9.2 mph - N/A   Clear
3:55 PM 15.8 °F 4.2 °F 5.0 °F 62% 30.34 in 10.0 mi NNE 9.2 mph - N/A   Clear
4:15 PM 15.8 °F 6.1 °F 5.0 °F 62% 30.34 in 10.0 mi North 6.9 mph - N/A   Clear
4:35 PM 15.8 °F 8.6 °F 5.0 °F 62% 30.34 in 10.0 mi NNW 4.6 mph - N/A   Clear
4:55 PM 17.6 °F - 5.0 °F 58% 30.34 in 10.0 mi Calm Calm - N/A   Clear
5:15 PM 17.6 °F 12.3 °F 5.0 °F 58% 30.34 in 10.0 mi NNW 3.5 mph - N/A   Clear
5:35 PM 15.8 °F 10.2 °F 5.0 °F 62% 30.34 in 10.0 mi NW 3.5 mph - N/A   Clear
5:55 PM 15.8 °F - 5.0 °F 62% 30.34 in 10.0 mi Calm Calm - N/A   Clear
6:15 PM 15.8 °F - 5.0 °F 62% 30.33 in 10.0 mi Calm Calm - N/A   Clear
6:35 PM 15.8 °F - 6.8 °F 68% 30.32 in 10.0 mi Calm Calm - N/A   Clear
6:55 PM 15.8 °F - 6.8 °F 68% 30.32 in 10.0 mi Calm Calm - N/A   Clear
7:15 PM 15.8 °F - 6.8 °F 68% 30.31 in 10.0 mi Calm Calm - N/A   Clear
7:35 PM 14.0 °F - 6.8 °F 73% 30.32 in 10.0 mi Calm Calm - N/A   Clear
7:55 PM 14.0 °F 8.2 °F 6.8 °F 73% 30.32 in 10.0 mi West 3.5 mph - N/A   Clear
8:15 PM - - - N/A% - - North - - N/A   Unknown
8:35 PM - - - N/A% - - North - - N/A   Unknown
8:55 PM 14.0 °F - 5.0 °F 67% 30.30 in 10.0 mi Calm Calm - N/A   Unknown
9:15 PM 14.0 °F - 5.0 °F 67% 30.29 in 10.0 mi Calm Calm - N/A   Clear
9:35 PM 14.0 °F - 5.0 °F 67% 30.28 in 10.0 mi Calm Calm - N/A   Clear
9:55 PM 14.0 °F - 6.8 °F 73% 30.29 in 10.0 mi Calm Calm - N/A   Clear
10:15 PM 14.0 °F 8.2 °F 6.8 °F 73% 30.29 in 10.0 mi SE 3.5 mph - N/A   Clear
10:35 PM 12.2 °F - 6.8 °F 79% 30.29 in 10.0 mi Calm Calm - N/A   Clear
10:55 PM 12.2 °F - 8.6 °F 85% 30.29 in 10.0 mi Calm Calm - N/A   Clear
11:15 PM 14.0 °F - 6.8 °F 73% 30.28 in 10.0 mi Calm Calm - N/A   Clear
11:35 PM 14.0 °F - 6.8 °F 73% 30.28 in 10.0 mi Calm Calm - N/A   Clear
11:55 PM 14.0 °F - 6.8 °F 73% 30.27 in 10.0 mi Calm Calm - N/A   Clear